Regional Weather Roundup
Issued by NWS Upton, NY

Home | Current Version | Previous Version | Text Only | Print | Product List | Glossary On
Versions: 1 2 3 4 5 6 7 8 9 10 11 12 13 14 15 16 17 18 19 20 21 22 23 24 25 26 27 28 29 30 31 32 33 34 35 36 37 38 39 40 41 42 43 44
000
ASUS41 KOKX 270005
RWROKX

REGIONAL WEATHER ROUNDUP
NATIONAL WEATHER SERVICE NEW YORK NY
700 PM EST FRI DEC 26 2014

NOTE: "FAIR" INDICATES FEW OR NO CLOUDS BELOW 12,000 FEET WITH NO
SIGNIFICANT WEATHER AND/OR OBSTRUCTIONS TO VISIBILITY.

NYZ071-072-176-178-NJZ106-104-270100-
NEW YORK CITY METRO AREA


CITY           SKY/WX    TMP DP  RH WIND       PRES   REMARKS
CENTRAL PARK   CLEAR     47  28  47 SW7       30.24R
LAGUARDIA APRT PTCLDY    47  29  49 SW9       30.21S
KENNEDY INTL   PTCLDY    44  31  60 SW9       30.23S
NEWARK/LIBERTY PTCLDY    44  30  57 SW9       30.23R
BRNX BOT. GARD   N/A    N/A N/A N/A SW3       30.22R
TETERBORO      CLEAR     42  29  59 SW7       30.22R
$$

NYZ177-179-078>081-270100-
LONG ISLAND NEW YORK

CITY           SKY/WX    TMP DP  RH WIND       PRES   REMARKS
FARMINGDALE    CLEAR     42  30  62 SW6       30.21F
ISLIP          PTCLDY    39  31  72 SW6       30.19F WCI  35
SHIRLEY        CLEAR     39  32  76 W5        30.22S
WESTHAMPTON    CLEAR     29  23  78 CALM      30.23R
MONTAUK POINT    N/A     44  34  67 SW6       30.21R
$$

NYZ052-065-067-270100-
HUDSON VALLEY

CITY           SKY/WX    TMP DP  RH WIND       PRES   REMARKS
WHITE PLAINS   CLEAR     41  28  60 CALM      30.18S
NEWBURGH       CLEAR     39  30  70 CALM      30.19
MONTGOMERY     CLEAR     33  28  81 CALM      30.18R
POUGHKEEPSIE   CLEAR     35  27  72 CALM      30.18R
ALBANY         PTCLDY    32  26  78 SW3       30.18R
$$

NJZ001-105-106-008-010-013-015-019>022-104-270100-
NEW JERSEY

CITY           SKY/WX    TMP DP  RH WIND       PRES   REMARKS
NEWARK/LIBERTY PTCLDY    44  30  57 SW9       30.23R
TETERBORO      CLEAR     42  29  59 SW7       30.22R
CALDWELL       CLEAR     42  29  59 SW3       30.22R
MORRISTOWN     CLEAR     36  30  80 CALM      30.23R
SOMERVILLE     CLEAR     34  28  79 CALM      30.22R
SUSSEX         CLEAR     36  28  73 SW6       30.20R WCI  31
ANDOVER        NOT AVBL
TRENTON        CLEAR     42  29  59 W5        30.24R
MILLVILLE      CLEAR     32  30  92 CALM      30.27R
ATLANTIC CITY  CLEAR     40  30  67 CALM      30.26R
WRIGHTSTOWN    CLEAR     38  30  71 W6        30.23R WCI  34
TOMS RIVER     PTCLDY    30  27  86 CALM      30.25R
BELMAR         CLEAR     43  27  52 W5        30.23R
$$

PAZ047>061-062-071-270100-
EASTERN PENNSYLVANIA

CITY           SKY/WX    TMP DP  RH WIND       PRES   REMARKS
PHILADELPHIA   MOCLDY    43  31  62 SW9       30.27R
ALLENTOWN      CLEAR     36  28  73 SW7       30.24R WCI  30
SCRANTON       CLEAR     39  27  62 CALM      30.20R
$$

CTZ002-004>006-009-010-012-RIZ004-006-007-MAZ004-011-015-270100-
SOUTHERN NEW ENGLAND
 IN CT

CITY           SKY/WX    TMP DP  RH WIND       PRES   REMARKS
BRADLEY INTL   CLEAR     38  28  67 SW5       30.17R WCI  34
HARTFORD       CLEAR     37  30  75 S3        30.19R
DANBURY        CLEAR     31  25  78 W3        30.19S
WTRBRY/OXFORD  CLEAR     34  27  75 SW6       30.18S WCI  29
BRIDGEPORT     CLEAR     43  37  79 SW3       30.19F
MERIDEN        CLEAR     34  29  82 SE3       30.19S
NEW HAVEN      CLEAR     40  32  73 CALM      30.19S
CHESTER        FAIR      39  32  75 SW3       30.19S
GROTON         CLEAR     41  32  70 W5        30.19S
WILLIMANTIC    CLEAR     36  29  75 CALM      30.19R

 IN RI

CITY           SKY/WX    TMP DP  RH WIND       PRES   REMARKS
PROVIDENCE     CLEAR     38  29  70 S5        30.18R WCI  34
BLOCK ISLAND   CLEAR     45  32  61 W10       30.19R
WESTERLY       CLEAR     42  33  70 W6        30.19S

 IN MA

CITY           SKY/WX    TMP DP  RH WIND       PRES   REMARKS
BOSTON         PTCLDY    45  29  53 W12       30.16R
WORCESTER      CLEAR     36  27  69 W7        30.14R WCI  30
WESTFIELD      CLEAR     34  28  79 CALM      30.17R
PROVINCETOWN   CLEAR     43  36  75 W8        30.15S
NANTUCKET      CLEAR     41  37  86 W6        30.16R
$$

ANZ330-335-338-340-345-350-353-355-270100-
COASTAL MARINE OBSERVATIONS


STATION/POSITION TIME  SKY/WX   TEMP    WIND        PRES    VSBY  WAVE
                                AIR SEA DIR/SP/G                  HT/PER
                 (UTC)          (F)     (DEG/KT/KT) (MB)    (MI)  (FT/S)
NY HARB ENTRANCE 0000            46 45  240/  8/  8 1024.1          2/11
4S FIRE IS       2300               47                N/A           3/10
20S FIRE ISLAND  2300            46 49              1023.8          2/ 9
23SW MTP         0000                                 N/A           3/ 5
HUDSON CANYON    0000            47 55  270/ 12/ 16 1023.8          3/ 5
EXECUTION ROCKS  0000            45 42  250/  8/  8   N/A
WESTERN LI SOUND 2300            44     200/  6/  6   N/A           0
CENTRAL LI SOUND 2300            45 44  230/ 10/ 12   N/A           1/ 2
EASTERN LI SOUND NOT AVBL
ROBBINS REEF     0000            46                 1021.9
$$


>>>>>>>>>>>>>>>>>>>>>>>>>>>> KEY <<<<<<<<<<<<<<<<<<<<<<<<<<<
>                                                          <
>     SKY/WX - SKY CONDITION/PRESENT WEATHER               <
>     TMP    - TEMPERATURE IN FAHRENHEIT                   <
>     DP     - DEWPOINT IN FAHRENHEIT                      <
>     RH     - RELATIVE HUMIDITY IN PERCENT                <
>     WIND   - DIRECTION AND SPEED IN MPH                  <
>     PRES   - MEAN SEA LEVEL PRESSURE IN INCHES OF HG     <
>     WCI    - WIND CHILL INDEX                            <
>     VSB    - VISIBILITY IN MILES                         <
>     HX     - HEAT INDEX                                  <
>     TC     - TEMPERATURE IN CELSIUS                      <
>     VRB    - VARIABLE WIND DIRECTION                     <
>                                                          <
>>>>>>>>>>>>>>>>>>>>>>>>>>>> KEY <<<<<<<<<<<<<<<<<<<<<<<<<<<




USA.gov is the U.S. government's official web portal to all federal, state and local government web resources and services.